Weather History for Rockford, IL

Change the Weather History Date:

Tuesday, July 8, 2014

  Actual Average Record
Temperature  
Mean Temperature 72 °F 74 °F  
Max Temperature 81 °F 85 °F 104 °F (1936)
Min Temperature 63 °F 63 °F 46 °F (1927)
Degree Days  
Heating Degree Days 0 0  
Month to date heating degree days 3 0  
Since 1 June heating degree days 14 31  
Since 1 July heating degree days 3 0  
Cooling Degree Days 7 9  
Month to date cooling degree days 40 72  
Year to date cooling degree days 318 302  
Since 1 June cooling degree days 235 247  
Growing Degree Days 22 (Base 50)    
Moisture  
Dew Point 61 °F    
Average Humidity 66    
Maximum Humidity 87    
Minimum Humidity 45    
Precipitation  
Precipitation 0.44 in 0.13 in 4.99 in (1951)
Month to date precipitation 0.91 1.00  
Year to date precipitation 18.94 18.12  
Snow  
Snow 0.00 in 0.00 in 0.00 in ()
Month to date snowfall 0.0 0.0  
Since 1 June snowfall 0.0 0.0  
Since 1 July snowfall 0.0 0.0  
Snow Depth 0.00 in    
Sea Level Pressure  
Sea Level Pressure 29.72 in    
Wind  
Wind Speed 12 mph (WNW)    
Max Wind Speed 23 mph    
Max Gust Speed 29 mph    
Visibility 10 miles    
Events Rain , Thunderstorm    
T = Trace of Precipitation, MM = Missing Value Source: NWS Daily Summary

Daily Weather History Graph

Daily Weather History Graph

Search for Another Location

Airport:

Trip Planner

Search our weather history database for the weather conditions in past years. The results will help you decide how hot, cold, wet, or windy it might be!

Date:

Astronomy

Jul. 08, 2014 Rise Set
Actual Time 5:28 AM CDT 8:34 PM CDT
Civil Twilight 4:54 AM CDT 9:08 PM CDT
Nautical Twilight 4:10 AM CDT 9:51 PM CDT
Astronomical Twilight 3:18 AM CDT 10:43 PM CDT
Moon 4:39 PM CDT (7/8) 2:03 AM CDT (7/8)
Length of Visible Light 16h 14m
Length of Day
15h 06m
Waxing Gibbous, 81% of the Moon is Illuminated
Jul 8
Waxing Gibbous
Jul 12
Full
Jul 18
Last Quarter
Jul 26
New
Aug 3
First Quarter

Hourly Weather History & Observations

Time (CDT) Temp. Heat Index Dew Point Humidity Pressure Visibility Wind Dir Wind Speed Gust Speed Precip Events Conditions
12:54 AM 73.0 °F - 66.0 °F 79% 29.65 in 10.0 mi SSW 8.1 mph - N/A   Overcast
1:54 AM 72.0 °F - 66.0 °F 81% 29.64 in 10.0 mi SSW 5.8 mph - N/A   Overcast
2:54 AM 73.0 °F - 63.0 °F 71% 29.62 in 10.0 mi ENE 5.8 mph - N/A   Overcast
3:14 AM 72.0 °F - 63.0 °F 73% 29.64 in 10.0 mi NE 6.9 mph - N/A Thunderstorm Thunderstorm
3:30 AM 70.0 °F - 64.0 °F 81% 29.67 in 2.0 mi North 6.9 mph - 0.05 in Rain , Thunderstorm Heavy Thunderstorms and Rain
3:44 AM 68.0 °F - 64.9 °F 90% 29.67 in 1.5 mi NW 6.9 mph - 0.27 in Rain , Thunderstorm Heavy Thunderstorms and Rain
3:54 AM 68.0 °F - 64.0 °F 87% 29.62 in 10.0 mi WSW 3.5 mph - 0.44 in Rain , Thunderstorm Light Thunderstorms and Rain
4:22 AM 68.0 °F - 64.9 °F 90% 29.65 in 10.0 mi SSW 3.5 mph - 0.00 in   Mostly Cloudy
4:54 AM 69.1 °F - 64.9 °F 87% 29.63 in 10.0 mi NNW 8.1 mph - 0.00 in   Overcast
5:54 AM 68.0 °F - 64.0 °F 87% 29.66 in 10.0 mi WNW 9.2 mph - N/A   Overcast
6:08 AM 68.0 °F - 64.0 °F 87% 29.68 in 10.0 mi WNW 6.9 mph - N/A   Overcast
6:32 AM 66.9 °F - 63.0 °F 87% 29.68 in 10.0 mi WNW 12.7 mph - N/A   Mostly Cloudy
6:54 AM 66.9 °F - 63.0 °F 87% 29.66 in 10.0 mi WNW 11.5 mph - N/A   Mostly Cloudy
7:20 AM 66.9 °F - 63.0 °F 87% 29.67 in 10.0 mi WNW 16.1 mph 21.9 mph N/A   Mostly Cloudy
7:54 AM 68.0 °F - 63.0 °F 84% 29.67 in 10.0 mi NW 11.5 mph 20.7 mph N/A   Overcast
8:39 AM 71.1 °F - 62.1 °F 73% 29.70 in 10.0 mi NW 17.3 mph 23.0 mph N/A   Scattered Clouds
8:54 AM 72.0 °F - 63.0 °F 73% 29.69 in 10.0 mi NW 16.1 mph - N/A   Scattered Clouds
9:54 AM 73.9 °F - 61.0 °F 64% 29.71 in 10.0 mi NW 13.8 mph 25.3 mph N/A   Scattered Clouds
10:54 AM 75.0 °F - 60.1 °F 60% 29.73 in 10.0 mi WNW 17.3 mph 24.2 mph N/A   Mostly Cloudy
11:54 AM 78.1 °F - 59.0 °F 52% 29.75 in 10.0 mi WNW 17.3 mph - N/A   Scattered Clouds
12:54 PM 78.1 °F - 57.9 °F 50% 29.75 in 10.0 mi West 23.0 mph 28.8 mph N/A   Scattered Clouds
1:54 PM 80.1 °F 80.7 °F 59.0 °F 48% 29.75 in 10.0 mi WNW 19.6 mph 24.2 mph N/A   Scattered Clouds
2:54 PM 77.0 °F - 59.0 °F 54% 29.76 in 10.0 mi WNW 16.1 mph - N/A   Mostly Cloudy
3:54 PM 80.6 °F 80.8 °F 57.2 °F 45% 29.78 in 10.0 mi WNW 16.1 mph - N/A   Scattered Clouds
4:54 PM 79.0 °F - 57.9 °F 48% 29.78 in 10.0 mi NW 13.8 mph - N/A   Scattered Clouds
5:54 PM 78.1 °F - 55.9 °F 46% 29.80 in 10.0 mi WNW 17.3 mph 25.3 mph N/A   Scattered Clouds
6:54 PM 77.0 °F - 55.0 °F 47% 29.81 in 10.0 mi WNW 15.0 mph 20.7 mph N/A   Partly Cloudy
7:54 PM 73.9 °F - 57.0 °F 55% 29.82 in 10.0 mi WNW 9.2 mph - N/A   Partly Cloudy
8:54 PM 69.1 °F - 55.9 °F 63% 29.82 in 10.0 mi West 6.9 mph - N/A   Partly Cloudy
9:54 PM 66.9 °F - 57.9 °F 73% 29.83 in 10.0 mi West 5.8 mph - N/A   Clear
10:54 PM 64.9 °F - 57.9 °F 78% 29.85 in 10.0 mi West 5.8 mph - N/A   Clear
11:54 PM 64.9 °F - 57.0 °F 75% 29.84 in 10.0 mi WSW 3.5 mph - N/A   Clear